Wind_Speed
29 28 28 28 28 27 27 26 26 25 25 24 24 23 22 21 20 19 18 18 17 16 15 15 15 14 13 13 13 13 14 13 13 13 14 13 13 14 14 16 16 17 17 18 19 19 20 19 17 13 10 9 12 16 19 19 15 15 19 20 23 23 25 26 25 24 23 23 23 23 22 21 20 19 19 19 19 18 18 18 17 16 16 17 18 19 19 20
31 31 31 30 30 30 30 29 29 28 28 27 27 26 26 25 24 22 21 20 19 19 17 17 16 16 15 14 14 14 14 13 12 12 13 13 12 12 12 13 14 15 15 16 17 17 18 18 18 15 11 7 7 12 16 18 16 15 17 19 20 21 22 22 22 23 22 22 22 22 22 21 20 19 18 18 18 17 16 15 15 15 16 17 18 17 17 18
34 34 33 33 33 32 32 32 31 31 30 30 29 28 28 28 27 26 25 23 22 21 20 19 18 17 16 15 15 16 15 14 13 12 12 13 13 12 11 11 12 13 14 14 15 15 16 17 17 16 13 9 5 7 11 15 15 13 12 15 20 22 21 20 21 21 22 21 21 21 20 19 18 17 18 17 17 15 14 14 14 15 16 16 15 14 14 15
37 36 36 36 35 35 35 34 34 33 33 32 31 31 30 30 29 29 28 27 26 24 23 21 21 19 18 17 16 16 18 16 15 14 12 12 13 13 11 10 10 10 12 12 13 13 14 15 16 16 15 13 9 6 5 12 16 15 13 15 22 23 20 20 19 20 20 20 20 19 18 17 17 17 17 16 14 13 13 13 13 13 12 12 11 10 11 12
39 39 38 38 38 37 37 36 36 36 35 34 34 33 32 32 32 31 31 30 29 28 26 25 24 22 20 19 17 17 18 19 17 16 15 14 14 14 13 11 10 9 10 11 11 12 12 13 14 15 15 14 12 9 5 7 14 18 20 23 24 22 19 18 18 18 18 18 17 16 15 16 16 16 15 13 12 11 11 11 10 9 9 9 9 8 9 9
40 40 40 39 39 38 38 37 37 36 36 35 34 33 33 32 32 32 32 31 31 30 29 28 26 25 23 21 19 18 18 21 20 18 18 17 15 15 14 13 11 10 9 9 10 10 11 12 12 13 14 15 13 11 9 4 5 14 22 24 23 20 18 17 16 16 16 16 15 14 14 14 14 13 11 10 10 10 9 9 7 7 7 8 8 7 7 8
41 41 40 40 39 39 38 38 37 37 36 36 35 34 33 32 32 32 32 31 31 30 30 30 28 27 26 24 22 20 19 22 22 20 20 19 17 17 16 15 13 11 10 9 10 10 9 10 11 11 12 13 14 12 10 9 5 3 12 17 20 20 17 15 14 14 14 13 13 13 13 12 11 10 10 11 11 10 9 8 7 7 7 7 7 8 9 10
42 42 42 42 42 41 41 40 40 39 39 38 37 36 35 34 33 32 32 32 31 31 30 30 29 28 28 26 25 23 22 25 24 22 23 21 20 20 19 18 16 14 12 10 9 10 10 9 9 10 10 12 13 13 11 11 10 6 2 8 15 19 17 15 14 14 13 12 12 12 11 10 10 10 12 13 12 11 9 9 8 7 7 7 7 7 9 11
45 45 45 45 45 45 44 44 43 43 43 42 41 40 39 38 37 36 35 34 33 33 32 31 30 28 28 27 26 25 26 28 26 23 24 23 22 22 22 20 19 17 15 12 10 10 10 9 8 8 9 9 11 13 12 11 11 10 6 0 7 14 17 16 15 15 12 11 12 12 11 11 11 12 13 13 13 12 11 10 8 7 6 6 6 6 8 10
49 49 49 49 49 48 48 48 47 47 47 46 45 44 43 42 41 40 39 38 37 36 35 34 32 31 29 28 27 27 28 29 27 25 26 25 24 23 23 23 22 20 18 16 13 11 11 11 9 8 8 8 9 11 12 11 11 11 9 5 2 8 14 17 17 15 13 12 13 12 12 12 13 13 13 13 13 13 13 11 8 6 6 6 6 6 6 7
50 50 50 51 51 51 51 51 51 51 51 50 49 48 47 46 45 44 43 41 40 39 38 37 36 34 32 31 29 28 28 28 28 28 28 28 27 25 24 24 24 23 21 19 17 13 11 12 11 9 7 7 7 8 10 11 10 10 10 7 2 5 10 14 15 14 13 13 13 12 13 14 14 14 14 14 15 15 14 11 7 6 5 5 5 4 4 5
50 50 51 51 51 52 52 51 52 52 52 52 52 51 50 49 48 47 46 45 44 43 42 41 39 38 36 35 33 31 29 29 28 29 30 30 30 28 26 26 25 25 24 22 21 17 13 12 12 11 8 6 6 6 8 10 11 9 10 9 5 2 6 10 11 12 12 13 13 13 13 15 15 15 16 16 17 16 13 10 7 5 4 4 4 3 2 4
52 52 53 53 53 54 54 53 53 53 54 54 53 53 52 52 51 50 49 48 48 47 46 44 43 41 39 38 38 35 32 31 29 29 30 32 32 31 29 28 27 27 27 26 24 21 17 14 13 13 11 7 5 5 6 7 9 9 9 9 7 4 3 7 9 10 11 12 13 13 14 15 16 16 16 17 16 14 11 9 6 4 2 3 3 4 5 7
53 53 54 54 55 55 55 55 56 56 56 56 56 55 55 54 54 53 52 51 51 50 49 48 47 45 43 42 42 40 37 35 32 30 31 32 34 34 32 31 30 30 29 28 27 25 21 18 15 14 14 11 7 4 4 4 6 8 8 8 7 6 2 4 8 9 9 11 12 13 14 14 15 15 15 15 14 12 10 8 6 4 2 3 4 7 8 9
53 54 54 55 55 56 56 56 57 57 58 58 58 57 57 57 57 56 55 54 53 52 52 51 50 49 47 46 46 44 41 39 37 34 32 32 34 34 34 34 33 33 31 30 30 28 25 22 18 16 15 14 10 6 3 2 3 5 6 7 7 7 5 4 5 6 8 9 11 13 13 14 14 15 15 14 13 12 11 9 7 5 5 5 7 10 11 12
51 51 51 52 53 54 54 55 55 56 57 58 58 59 59 59 59 59 58 57 56 55 54 53 52 52 50 49 49 48 46 43 41 38 36 35 35 35 35 35 35 35 34 33 33 32 30 27 23 19 17 15 14 10 6 3 1 2 3 5 6 7 7 7 6 6 6 8 10 12 13 14 15 16 16 15 14 14 12 11 10 10 10 10 11 13 15 16
45 46 46 47 48 49 49 50 51 51 52 54 55 56 58 58 59 60 60 59 58 57 57 56 55 53 52 52 51 51 50 48 45 42 40 38 37 37 37 36 36 36 36 36 35 35 33 31 27 24 20 17 16 14 10 5 3 1 1 2 3 6 8 8 8 8 7 7 8 10 11 12 13 14 15 16 16 16 16 15 14 14 14 15 14 14 15 16
41 41 41 41 42 43 44 45 46 47 47 48 50 51 52 54 56 57 59 59 59 59 58 58 58 56 54 54 53 54 54 52 49 46 45 43 41 40 39 38 37 37 38 38 38 38 37 35 31 28 26 22 19 17 14 10 6 4 3 2 1 2 6 7 7 8 8 7 7 10 12 12 13 13 14 16 17 17 18 16 15 15 15 16 15 14 14 15
38 38 38 38 38 39 40 41 42 43 44 45 46 47 48 50 51 53 55 56 57 58 58 59 59 58 57 56 54 55 56 54 52 50 48 47 45 43 42 41 39 38 38 39 40 40 40 38 34 33 32 26 21 19 17 15 11 8 7 6 5 4 4 6 7 7 6 6 7 9 12 14 14 14 14 16 16 17 17 17 16 15 15 15 15 14 14 14
36 36 36 36 35 36 37 38 39 40 40 41 42 44 45 46 47 49 51 52 53 54 55 56 58 59 58 58 57 57 57 56 55 54 52 51 49 47 45 44 43 40 38 39 40 41 42 40 37 38 37 30 24 22 21 19 16 12 10 9 8 8 7 7 8 7 5 4 5 8 11 13 13 14 15 16 15 14 16 17 17 16 15 15 14 14 14 13
37 37 36 35 34 34 35 36 37 37 38 38 39 40 41 43 44 45 48 49 50 51 52 53 55 57 56 57 59 59 59 57 57 56 55 54 53 51 49 47 46 44 42 41 41 41 43 40 40 44 42 36 29 25 25 23 20 17 14 12 11 10 10 10 10 9 8 6 5 6 9 11 13 14 17 17 14 14 17 18 18 18 17 15 14 14 14 13
40 39 39 38 36 35 36 36 36 37 37 37 37 37 37 38 40 41 43 46 47 47 49 51 52 54 53 54 57 59 59 59 58 58 58 57 55 54 53 51 50 48 46 43 41 41 41 41 44 48 46 40 34 29 28 27 25 22 18 16 15 14 13 12 12 11 10 10 9 8 9 10 12 15 17 16 14 15 18 20 20 20 18 16 15 14 13 11
41 42 41 40 38 37 38 39 39 39 38 38 37 37 37 36 37 38 38 41 44 43 44 47 50 52 51 51 54 56 57 59 59 59 60 59 59 57 56 55 54 52 49 46 44 42 41 43 48 51 49 43 38 34 32 31 29 26 23 21 20 18 16 15 14 12 12 12 11 11 11 12 13 14 16 16 15 17 20 21 21 20 19 18 16 14 12 11
43 43 43 42 41 38 38 40 40 41 41 40 40 39 38 38 37 37 36 37 40 41 40 40 44 49 50 50 52 54 55 57 57 58 60 61 61 60 58 58 56 54 52 50 48 46 45 47 50 52 50 45 41 38 35 33 32 31 28 25 24 22 20 18 15 14 14 14 13 13 13 13 14 15 16 16 17 19 21 21 21 20 19 17 16 14 12 10
45 45 45 45 43 40 39 39 40 42 42 42 42 42 41 40 40 39 38 37 38 39 38 36 38 43 47 49 50 52 54 55 55 56 59 62 61 61 62 61 58 57 57 55 52 50 49 51 52 51 50 47 44 41 38 37 36 35 33 30 28 26 24 21 19 18 16 16 16 16 16 16 16 16 16 17 17 19 21 22 21 20 19 17 15 13 12 10
48 48 48 48 46 44 41 40 41 42 42 43 43 43 43 43 43 42 41 40 39 40 38 36 36 39 42 45 48 51 51 52 54 54 57 59 60 61 63 63 62 61 60 59 56 54 53 54 53 51 51 51 47 44 41 40 39 38 37 35 33 30 28 24 23 22 20 19 19 18 18 19 19 18 17 18 18 20 22 22 21 20 19 19 16 14 12 11
51 51 52 52 51 49 46 43 43 43 43 44 44 43 43 43 44 44 44 43 41 43 43 39 38 38 40 41 44 48 49 50 53 53 55 58 58 59 62 63 65 64 63 61 59 57 57 58 55 53 54 53 50 47 44 42 42 41 40 40 38 35 31 28 28 27 24 23 21 20 20 20 20 20 20 20 20 21 22 22 21 19 19 19 17 15 15 15
55 55 56 57 56 55 53 49 47 46 46 47 47 46 46 45 45 45 45 44 42 44 48 46 42 40 40 40 41 43 45 48 50 50 54 56 56 57 59 62 66 67 65 63 61 61 62 60 57 57 59 56 53 51 47 45 44 44 45 45 43 40 35 33 34 31 29 28 23 21 21 21 21 22 22 22 22 23 23 22 22 21 20 20 18 17 18 19
59 59 60 61 60 60 59 56 52 51 50 50 51 50 50 50 49 48 46 44 42 44 48 50 48 45 44 43 42 40 40 44 46 48 52 54 55 56 58 60 64 67 67 65 65 66 65 63 60 61 61 58 58 56 51 48 47 48 50 48 47 44 38 37 38 36 34 30 24 21 22 23 23 23 22 24 25 25 24 24 24 23 23 22 21 20 21 23
61 61 62 64 64 64 64 62 59 57 55 54 54 54 53 53 52 52 49 46 46 47 47 51 52 50 50 47 44 41 39 40 41 44 48 51 53 55 57 59 60 64 68 68 69 68 68 67 64 63 61 60 62 60 54 52 51 52 52 50 48 46 43 41 41 40 36 28 24 23 24 26 26 23 24 26 26 25 26 26 26 25 25 24 22 22 23 24
62 62 63 64 66 67 67 66 64 62 60 59 59 58 57 56 55 55 53 50 52 51 49 53 54 52 53 51 47 45 43 41 39 40 44 47 51 54 56 57 58 62 66 68 71 72 71 69 67 65 65 65 66 62 57 56 55 55 53 50 49 49 48 44 42 41 36 29 28 28 28 30 29 26 27 28 27 25 26 27 27 27 26 25 23 24 24 23
65 65 65 65 67 69 69 69 69 67 65 63 63 62 60 60 57 56 56 56 58 55 53 57 57 56 56 53 51 49 48 45 42 42 42 43 47 50 54 57 57 60 63 66 71 75 73 71 70 70 69 69 69 65 61 59 59 58 55 51 50 52 50 45 42 41 37 33 34 33 33 33 32 31 31 29 27 26 26 27 27 27 26 24 24 25 24 23
68 68 69 68 69 71 72 72 72 71 69 68 68 66 65 62 57 58 60 61 61 59 58 60 61 60 59 56 55 53 51 51 48 45 44 42 43 45 50 56 57 58 62 64 69 74 75 73 73 73 72 71 71 69 64 62 63 62 58 53 51 53 52 47 43 42 39 38 38 39 38 35 33 35 33 30 30 29 28 27 27 27 26 25 25 24 24 25
71 71 71 71 71 73 74 75 76 75 73 72 71 71 68 63 60 62 63 63 65 63 62 63 63 64 63 61 60 57 54 55 52 49 49 46 43 42 45 51 56 59 62 64 66 71 75 75 74 75 75 74 73 71 67 67 68 65 62 59 56 55 53 49 46 46 46 44 43 44 40 35 36 39 37 36 35 32 30 29 29 28 27 27 25 24 25 26
75 75 74 74 74 75 77 78 79 79 78 77 76 74 70 65 66 68 67 66 68 67 66 66 65 66 66 65 65 61 58 58 55 53 54 51 46 44 43 46 52 57 61 63 63 67 72 76 77 78 79 77 76 74 73 74 71 67 69 68 59 55 54 52 51 51 53 50 46 46 42 39 42 44 43 41 37 35 34 31 31 31 29 27 26 25 26 27
79 79 79 79 78 79 80 81 82 83 83 82 80 76 72 70 71 72 71 70 70 70 70 69 68 69 69 68 68 65 62 62 59 56 56 55 52 49 46 45 48 52 58 63 64 65 69 74 79 80 80 79 78 78 79 78 72 70 75 70 59 57 58 56 54 55 57 52 47 47 45 44 46 48 47 43 39 38 36 32 33 34 31 30 28 28 28 29
83 84 84 84 83 84 85 85 86 86 86 85 82 77 74 74 75 75 75 74 73 74 74 73 72 72 72 70 70 70 67 66 63 58 58 60 57 54 51 48 47 49 54 61 65 65 66 71 78 80 81 82 82 82 82 80 76 76 77 71 64 65 63 59 58 58 56 51 48 50 49 47 48 49 48 45 42 39 36 35 36 36 35 33 31 31 30 29
87 88 89 88 88 89 89 89 90 90 90 88 84 79 78 78 78 78 79 79 78 77 76 77 76 75 75 73 73 74 72 70 68 63 61 62 60 59 57 53 49 48 52 58 64 65 64 68 75 79 82 84 85 85 84 82 80 78 77 73 72 71 65 61 61 59 54 51 51 52 51 50 49 50 49 48 45 39 35 39 41 39 38 36 35 34 32 31
92 93 94 92 92 93 92 91 92 93 92 90 85 82 82 82 82 82 83 83 83 80 78 79 80 79 77 76 76 78 77 75 73 69 64 63 63 63 60 58 54 52 53 56 61 64 64 66 71 77 82 85 88 87 85 83 81 80 78 76 77 74 68 66 64 59 56 55 54 53 53 51 50 52 52 50 47 40 38 44 45 41 40 39 39 38 35 34
96 97 98 96 96 97 96 94 95 95 94 92 88 87 86 86 87 86 86 87 88 85 82 83 84 83 81 80 80 80 81 80 78 74 70 66 67 65 62 63 61 56 56 57 58 63 65 65 69 75 80 84 87 86 84 83 83 82 81 79 80 78 73 71 66 63 62 60 56 55 54 52 52 55 56 53 49 43 43 48 47 43 43 43 42 41 39 38
100 100 101 99 98 101 101 99 98 97 97 95 93 92 92 91 91 91 91 91 92 90 87 87 88 87 86 85 83 82 84 85 81 78 76 71 69 67 64 65 66 61 57 57 57 60 64 64 67 73 77 79 82 85 85 86 87 87 85 83 82 81 79 75 70 69 66 60 56 56 54 54 55 57 59 57 52 47 47 50 49 47 47 46 45 44 42 41
104 104 105 103 102 105 106 104 102 102 101 99 98 98 98 98 97 96 95 95 95 94 93 93 92 91 90 89 87 85 88 88 84 81 81 77 72 70 67 66 69 66 61 59 59 59 62 65 67 70 73 74 78 84 88 90 91 91 89 87 85 85 85 82 76 72 68 61 59 59 56 55 58 59 61 60 53 49 50 51 50 51 49 47 47 46 44 43
108 108 109 109 108 109 111 110 108 108 107 105 104 104 104 104 103 101 101 100 99 99 98 98 96 95 94 93 91 90 90 91 87 84 84 82 77 72 69 67 69 71 67 65 64 61 61 64 64 67 70 72 76 82 88 92 93 93 92 89 87 88 88 85 78 75 73 67 64 64 58 55 58 61 62 62 56 53 53 52 53 54 50 48 49 47 46 46
114 114 115 116 116 115 116 115 114 114 113 112 111 110 110 109 108 107 106 105 104 103 103 102 100 98 97 96 96 94 94 93 90 87 87 86 82 75 71 69 70 74 75 70 66 62 59 61 63 66 68 69 72 77 83 89 91 92 92 90 87 89 89 84 81 81 77 70 68 67 61 57 61 63 64 65 61 56 55 55 55 54 51 50 50 49 50 49
120 120 121 122 123 123 122 121 122 122 121 119 118 116 115 115 114 113 111 110 109 108 108 107 105 103 101 101 100 98 97 96 93 91 90 89 87 80 73 71 72 76 79 74 67 63 58 58 61 63 65 66 68 73 78 84 89 90 92 91 90 91 89 84 85 86 79 72 72 70 63 61 64 64 64 67 65 58 56 58 57 54 52 51 50 51 52 51
127 127 127 129 131 130 129 129 129 129 129 127 125 123 121 120 119 118 116 115 114 114 113 112 110 108 106 105 104 102 100 99 97 96 94 91 90 85 78 74 75 79 80 75 70 65 59 57 58 59 62 66 68 71 76 82 89 92 94 95 95 94 92 89 90 90 81 77 77 72 66 67 68 66 65 68 66 61 60 62 60 57 54 52 52 54 55 53
134 134 135 137 138 137 136 136 136 136 135 133 131 128 127 125 124 123 121 120 119 118 118 116 115 113 110 109 108 107 105 104 102 99 96 94 92 89 83 78 78 79 79 76 73 68 63 60 58 57 61 66 68 70 73 80 87 91 93 95 97 98 96 94 94 91 85 83 81 75 72 72 70 68 68 68 67 66 66 65 62 59 56 55 57 59 57 54
141 140 140 141 142 142 141 140 141 140 139 138 136 134 132 130 129 127 126 124 123 122 121 120 118 116 114 113 112 111 109 107 106 103 100 98 95 91 87 82 79 79 78 77 76 72 66 61 58 57 59 64 68 70 71 76 83 89 90 92 96 99 99 98 96 91 89 89 85 79 78 75 72 71 69 67 68 71 71 68 65 63 60 59 61 61 58 56
142 142 142 142 142 142 142 142 142 141 141 140 139 137 134 133 132 130 129 128 127 126 124 122 121 120 119 117 115 113 111 110 108 106 103 101 97 93 90 84 79 78 78 79 78 73 66 61 61 60 59 62 67 70 70 72 78 85 89 90 94 99 100 99 96 93 93 93 87 83 83 79 75 75 72 68 70 75 74 72 70 67 65 65 65 62 60 58
140 140 140 139 139 139 139 140 140 140 139 139 138 137 135 134 134 132 131 130 128 127 126 125 125 123 121 119 116 114 112 111 111 109 107 104 98 95 91 84 79 79 79 80 79 73 66 65 65 63 60 60 65 69 70 70 73 79 86 90 92 96 100 101 98 95 95 94 89 87 87 83 80 79 74 71 73 76 77 75 74 72 69 69 67 62 61 60
129 129 128 128 128 129 129 131 131 131 131 132 132 132 131 131 131 130 129 127 127 128 128 127 125 123 120 118 116 115 115 115 114 111 107 101 96 93 88 81 78 79 79 80 78 71 68 67 66 64 60 57 61 67 69 70 72 75 82 87 90 92 97 100 100 98 97 95 92 90 89 84 81 80 77 75 75 76 78 79 78 76 73 72 68 63 63 63
113 112 111 111 111 113 114 115 115 116 116 117 118 119 120 120 121 122 123 124 125 127 128 126 123 121 120 119 119 119 119 116 112 107 102 98 95 92 87 81 78 79 79 77 76 73 69 68 68 67 62 57 58 63 66 70 74 74 75 80 86 89 93 96 98 99 98 96 94 93 89 84 83 84 83 78 75 75 78 81 82 79 76 74 70 66 66 65
Wind_Direction
262 263 264 265 266 267 269 270 271 272 273 275 276 276 277 277 277 278 280 283 285 288 292 297 303 309 314 319 322 328 334 340 348 349 352 2 12 19 25 29 30 34 39 45 49 50 47 48 53 71 116 160 183 189 208 207 200 212 218 232 234 229 230 228 227 227 225 226 226 226 225 226 226 227 230 234 239 241 245 248 252 257 262 267 267 266 265 264
263 264 264 265 266 267 268 269 270 271 272 273 274 276 277 277 278 278 278 278 280 283 285 289 293 298 303 309 311 315 322 326 333 339 341 346 355 4 14 21 24 27 31 37 43 48 48 45 46 51 77 116 179 190 203 207 199 201 215 233 238 230 226 224 224 222 220 218 217 218 220 223 226 230 235 240 246 250 255 259 263 267 270 270 267 263 262 263
263 263 264 264 265 266 267 268 269 270 270 271 272 274 275 276 278 278 278 277 277 278 280 282 285 288 293 298 302 305 310 314 319 326 331 334 338 346 356 7 15 20 23 30 35 42 47 46 43 41 50 65 101 165 195 204 197 193 210 239 243 233 224 221 221 219 217 215 214 218 222 227 232 237 242 247 252 257 264 269 272 272 269 266 263 260 260 264
263 263 264 264 265 265 266 267 268 268 269 269 270 271 273 274 275 276 277 277 276 276 275 277 278 280 283 287 292 296 300 304 306 312 317 321 323 328 336 347 359 9 13 19 27 33 40 46 45 38 36 41 57 87 165 195 195 191 202 233 238 230 223 222 223 222 220 218 219 221 225 230 234 240 244 247 251 257 265 268 267 265 262 260 260 258 257 263
264 264 264 264 265 265 266 266 267 267 267 268 268 269 270 271 273 273 274 275 275 275 274 274 274 275 276 278 283 286 292 295 296 300 303 307 310 313 319 327 338 350 1 5 14 24 30 38 44 40 32 31 40 52 78 181 201 203 211 227 231 226 221 220 222 222 221 221 220 221 225 231 234 238 241 243 246 251 253 252 249 250 254 255 256 252 246 253
264 264 265 265 265 266 266 266 266 267 267 267 267 267 267 268 269 270 271 271 272 273 273 272 272 272 272 272 274 278 282 285 288 292 293 296 300 302 307 312 319 329 342 351 357 8 21 28 37 41 35 28 29 40 52 76 205 214 219 225 227 223 217 216 219 218 218 217 216 219 224 229 232 233 236 235 231 229 229 230 234 241 248 248 246 241 237 242
266 266 266 266 266 266 266 267 267 267 267 266 266 266 266 266 266 267 268 269 269 269 270 270 270 270 270 270 269 270 272 274 280 283 284 288 293 295 299 301 306 312 320 333 342 349 2 18 27 35 39 31 26 32 44 48 42 233 228 225 222 218 213 214 218 219 217 215 217 218 221 226 227 227 224 218 212 211 216 222 226 230 238 241 241 241 241 241
267 267 268 268 268 268 267 267 267 267 267 267 266 266 266 265 264 264 265 266 267 268 268 267 267 267 267 267 266 265 264 265 270 275 279 284 286 289 293 295 298 300 305 313 323 333 340 358 13 24 34 34 28 26 38 46 42 33 286 226 218 212 208 209 217 221 218 217 223 219 218 224 221 217 213 209 206 205 210 216 221 229 235 242 245 249 250 249
267 268 268 268 268 268 268 268 268 267 267 267 267 266 266 265 264 264 263 263 264 265 266 266 266 266 265 264 264 262 261 262 265 269 274 279 279 283 288 290 292 294 296 300 305 316 322 333 352 9 20 32 32 25 29 42 44 40 33 307 212 207 205 206 212 217 217 221 228 222 217 220 216 212 210 208 206 203 206 211 220 234 242 247 251 253 255 254
267 268 268 268 268 268 269 269 268 268 268 267 267 266 265 265 264 264 263 263 262 263 264 264 264 264 264 263 261 259 259 260 263 264 267 272 273 276 281 284 287 289 290 292 293 299 307 314 325 347 6 19 31 29 24 32 44 46 41 41 176 198 201 206 209 211 216 225 229 223 215 216 214 211 209 208 207 205 206 209 218 240 250 253 254 251 255 255
269 269 269 269 269 268 268 268 268 268 268 267 267 266 266 265 264 263 263 262 262 261 261 262 263 263 263 262 260 257 257 259 260 260 261 264 267 269 272 277 280 283 284 286 286 287 292 300 308 320 343 2 19 29 25 24 35 48 48 46 78 184 196 204 207 208 213 220 223 219 215 217 216 213 208 207 208 207 207 211 220 243 252 257 255 244 250 247
272 271 271 271 270 270 269 269 269 268 268 268 267 266 265 265 264 263 263 262 262 261 261 260 261 261 261 261 260 257 256 256 256 257 258 258 261 262 264 267 272 275 278 280 281 281 281 287 294 301 313 339 0 18 26 22 23 37 50 47 52 148 198 205 209 211 209 210 214 215 215 216 216 211 205 204 206 205 207 212 219 238 252 259 245 211 196 197
273 273 273 273 273 272 272 271 270 270 270 269 268 267 266 265 264 263 262 262 261 261 260 260 259 259 259 259 259 258 256 255 253 253 255 256 257 258 259 260 264 268 272 275 276 276 276 276 282 289 295 306 331 0 17 23 20 23 42 48 44 56 197 213 213 211 205 202 206 213 216 216 215 211 205 201 201 202 207 209 204 214 228 235 211 162 152 156
273 273 273 273 273 273 273 272 272 272 271 271 270 269 268 267 265 264 262 261 260 260 260 260 259 259 258 258 258 258 256 255 253 250 252 254 255 256 256 257 259 262 265 269 271 273 273 271 270 276 284 288 297 326 356 19 20 16 31 47 49 52 72 200 208 210 205 201 203 209 214 216 216 213 208 203 202 204 205 195 177 176 171 188 185 159 154 151
273 273 273 273 273 273 272 272 272 272 272 271 271 270 269 268 267 266 264 262 260 259 259 259 259 258 257 256 257 257 255 254 253 250 249 251 254 255 254 255 255 257 260 264 267 269 270 269 265 266 272 277 280 284 304 348 15 14 24 42 54 60 69 114 171 197 201 201 202 205 211 217 218 217 214 209 205 201 189 168 148 139 136 149 164 155 146 143
275 274 274 274 274 274 273 273 272 272 272 271 271 270 270 269 268 267 266 264 262 260 259 258 257 257 257 256 256 256 254 253 253 251 249 248 251 253 253 253 254 256 258 260 263 266 267 267 265 262 262 265 271 270 267 276 328 4 20 36 54 75 82 89 111 142 174 191 199 204 209 215 218 218 215 206 196 183 163 142 129 125 126 134 144 144 140 138
276 276 276 276 276 275 275 274 274 273 272 272 271 271 270 269 268 268 267 265 264 262 261 259 257 256 255 255 255 255 254 252 251 251 250 248 248 250 252 252 252 253 255 256 259 262 264 264 264 262 259 257 261 263 259 253 249 267 311 36 46 84 93 90 96 106 124 157 181 188 189 194 197 197 193 183 172 159 142 130 126 126 128 133 139 142 143 143
276 276 275 275 276 276 276 276 276 275 274 273 273 272 271 270 269 269 268 266 265 263 262 260 258 256 255 254 254 254 254 253 251 249 249 248 247 247 249 250 250 249 251 253 255 258 261 263 263 263 259 253 252 257 257 250 239 235 230 208 238 109 110 110 107 104 109 125 146 159 160 161 161 159 160 159 153 145 135 131 131 133 136 138 142 146 148 148
276 275 274 273 273 274 275 275 275 275 275 275 274 274 273 272 271 270 269 268 266 265 263 262 260 258 256 253 252 252 253 252 251 249 248 247 246 246 247 248 249 248 248 249 251 254 258 260 261 261 258 252 249 252 254 249 240 232 231 219 216 218 174 149 137 121 110 116 129 143 149 151 151 149 149 148 147 145 139 138 141 143 145 146 147 150 151 151
278 277 275 273 272 272 273 273 274 274 274 274 274 274 274 274 273 272 271 270 268 267 265 263 262 259 257 255 253 251 251 251 251 249 247 246 245 244 244 245 247 246 246 247 248 251 254 257 258 259 258 254 249 248 250 248 242 234 230 227 221 221 222 206 181 158 143 142 145 147 152 155 155 154 152 152 155 155 147 144 146 148 150 150 150 151 151 150
281 280 279 277 275 274 274 273 273 273 272 272 272 273 273 274 273 273 273 272 270 269 268 265 263 261 258 257 255 252 250 248 248 249 248 246 244 243 243 243 244 245 244 244 246 249 252 254 255 256 257 254 249 246 248 247 242 236 231 230 228 224 228 232 222 200 182 181 184 173 167 165 164 162 160 161 165 163 154 148 148 150 150 150 150 150 150 150
282 282 282 281 279 278 277 277 276 274 273 272 271 271 271 272 272 272 273 273 271 271 270 268 266 264 260 258 257 254 251 248 247 247 247 246 244 242 241 241 241 243 242 243 244 247 250 249 250 253 254 253 250 246 246 247 244 239 233 232 232 227 228 232 234 230 213 197 196 196 188 180 173 170 170 170 170 167 158 153 151 152 152 152 152 151 153 156
281 282 283 283 282 281 281 281 280 279 278 276 274 272 271 270 270 270 271 272 271 270 271 271 269 266 263 260 258 256 254 251 247 245 245 245 244 242 241 240 239 240 241 241 242 243 245 245 246 250 252 251 249 246 245 246 246 243 236 233 232 229 229 230 230 233 231 215 199 199 200 194 184 180 179 178 175 171 164 158 156 157 158 157 156 156 159 164
279 280 281 282 283 284 284 283 284 284 283 282 281 279 277 274 272 271 270 271 271 268 268 270 271 269 266 262 260 258 256 253 249 246 245 243 242 242 241 240 238 238 239 239 240 240 241 243 246 249 251 252 250 247 246 246 247 246 241 235 233 232 229 229 229 229 233 227 212 202 200 200 196 190 188 185 180 175 171 166 164 163 164 164 164 166 169 174
278 279 280 281 282 283 283 284 284 284 285 285 285 284 284 282 280 277 274 274 274 270 266 266 270 270 268 266 263 260 258 255 252 249 246 243 241 241 241 240 238 237 237 237 237 238 240 243 246 250 252 252 250 248 246 245 246 246 245 239 234 233 231 228 229 229 228 228 223 211 202 201 202 199 197 193 187 181 178 177 174 172 174 175 176 181 185 190
278 279 279 279 280 281 281 282 281 282 283 283 284 285 285 285 285 283 281 279 279 279 272 265 266 269 269 267 266 263 260 258 255 252 250 246 241 239 239 239 238 236 235 235 235 236 239 242 245 248 250 250 249 247 244 244 245 246 247 244 237 233 232 230 230 229 227 226 225 222 213 207 205 204 202 200 196 192 189 188 188 187 189 187 187 199 211 214
277 278 278 279 279 280 280 279 279 280 280 280 281 283 283 283 283 283 283 283 284 285 281 274 269 269 268 267 267 265 263 261 257 254 253 250 244 240 238 237 238 236 234 234 233 235 238 240 242 245 247 248 248 247 244 242 242 244 245 245 242 235 230 232 233 229 228 227 223 225 226 219 213 209 205 205 204 202 199 197 198 200 201 198 195 206 226 236
277 277 278 279 279 280 280 279 279 279 278 278 280 281 282 281 281 281 282 283 285 285 284 281 275 271 270 268 266 265 265 264 261 259 256 253 248 243 239 237 236 236 235 233 232 233 236 237 238 241 243 245 246 244 242 239 239 240 242 243 243 238 230 231 234 229 227 227 222 224 230 229 224 218 212 210 209 208 207 204 205 207 208 207 203 208 230 245
278 278 278 279 279 280 280 280 279 278 277 277 278 278 279 280 281 281 280 282 283 280 280 281 279 276 273 270 267 264 263 264 263 262 260 256 252 248 243 238 236 236 234 233 232 232 234 235 236 239 242 244 245 243 241 239 237 236 238 239 241 240 234 232 234 232 228 225 220 224 231 232 230 227 221 218 215 212 210 210 211 211 212 212 205 207 229 245
279 279 279 279 279 279 279 279 278 277 276 276 276 276 277 278 280 281 282 284 282 279 279 280 279 279 277 274 270 266 263 261 262 262 261 260 257 253 248 241 236 235 234 232 232 232 232 233 234 237 240 242 244 244 242 241 238 236 237 238 239 241 238 234 233 233 231 226 222 226 232 235 231 228 227 225 222 218 214 214 215 216 219 219 213 213 225 236
281 280 279 279 279 279 279 278 278 276 275 275 274 274 274 275 277 280 283 283 280 280 281 279 278 278 277 276 274 272 268 262 259 259 260 260 259 257 254 248 239 236 233 232 232 231 230 231 232 235 237 238 241 242 241 242 241 240 239 238 239 240 239 236 234 235 234 230 228 229 231 235 233 229 229 229 227 225 221 219 218 217 220 222 221 222 223 227
280 280 279 279 278 278 278 278 277 276 275 274 273 273 273 273 276 279 280 278 277 279 281 279 279 277 276 276 275 275 273 268 263 260 258 257 258 258 257 254 247 240 235 231 232 231 229 229 231 233 234 236 239 240 239 240 241 241 239 237 238 240 240 239 237 237 235 233 233 232 231 233 234 232 231 230 231 229 227 226 224 222 222 223 226 228 228 229
279 279 279 278 278 278 278 277 276 275 274 273 273 272 272 273 276 276 275 274 275 277 278 278 279 278 276 275 274 272 273 273 269 265 260 257 256 257 257 257 253 247 240 232 230 231 229 227 229 232 234 235 238 239 239 239 241 240 240 238 237 239 240 239 239 240 238 235 236 236 232 232 237 238 235 233 233 230 229 230 230 228 226 226 227 228 232 233
278 278 278 277 277 277 277 277 276 276 274 273 272 271 271 273 274 273 271 272 272 273 275 276 277 278 277 276 274 271 272 272 270 268 267 261 256 255 256 256 255 253 247 238 231 230 229 227 227 230 232 233 236 238 237 238 238 239 239 236 233 235 237 238 238 240 240 236 235 237 234 232 237 240 237 234 233 232 231 231 232 231 227 228 228 228 232 235
278 277 277 276 276 276 275 275 275 275 274 272 271 271 272 273 272 271 270 270 270 271 272 273 274 275 276 276 274 271 270 270 269 269 270 267 262 257 254 254 255 254 253 246 237 231 229 227 226 228 230 231 233 234 234 235 236 237 239 235 231 232 234 234 234 235 238 236 234 236 235 232 235 238 238 235 234 235 234 232 234 235 232 230 230 230 232 234
277 277 276 276 275 275 274 274 273 273 273 272 270 271 272 271 270 270 269 269 269 270 270 271 272 272 272 273 273 272 271 270 269 269 270 270 267 263 257 255 255 254 253 251 244 236 230 227 226 227 229 230 232 233 234 235 234 236 239 236 233 233 232 231 231 232 235 235 233 236 236 234 236 238 239 238 236 237 238 237 238 240 238 234 232 232 233 234
277 277 276 276 275 275 274 273 272 272 272 271 270 270 270 268 268 268 268 267 267 268 268 269 270 270 271 271 272 272 271 270 269 268 270 270 269 267 263 258 255 254 253 252 249 241 233 229 226 225 228 228 229 232 233 234 234 234 238 237 235 234 232 230 230 231 232 233 233 235 236 235 237 240 241 241 239 238 240 241 241 241 242 240 237 236 237 239
278 277 276 276 276 275 274 273 272 272 271 270 270 270 268 267 266 265 265 265 265 266 267 268 269 269 270 270 271 271 270 271 270 268 269 270 269 268 267 262 257 256 254 252 251 246 238 233 228 225 226 227 228 230 232 232 233 234 237 238 237 234 232 231 231 231 232 232 232 234 235 235 237 241 242 242 241 239 240 243 243 241 243 243 242 240 240 240
278 277 276 276 275 274 272 272 271 271 270 270 270 269 268 266 265 264 264 265 265 265 266 267 267 267 267 268 268 269 270 270 270 269 268 269 269 267 267 266 262 258 257 254 252 248 243 238 232 226 224 227 227 228 231 232 233 234 235 236 238 236 233 232 231 231 231 230 231 233 235 236 237 240 242 242 241 238 236 241 243 243 243 244 244 244 243 241
278 277 276 276 275 273 272 271 270 270 270 270 270 268 267 266 265 265 265 265 265 265 265 265 265 266 266 266 267 268 269 269 269 269 268 267 268 267 266 267 265 260 258 256 252 250 246 242 238 230 224 225 227 227 230 232 232 234 234 235 238 238 235 234 233 231 230 228 228 230 234 236 236 239 241 241 240 237 235 239 243 243 243 243 244 246 246 244
277 276 275 275 274 273 272 271 270 270 269 269 269 268 267 266 265 265 264 264 265 265 265 265 265 265 266 266 266 267 267 267 268 268 268 267 266 266 265 265 265 261 258 257 255 253 249 245 243 237 227 224 227 227 228 230 231 231 232 232 235 237 237 235 232 233 232 230 230 230 230 233 235 237 240 241 240 238 237 239 242 242 242 243 245 246 247 246
276 275 275 274 273 272 272 271 270 269 269 268 268 267 266 265 264 264 264 264 264 264 264 264 264 264 265 265 265 265 265 266 266 266 267 267 265 264 264 263 264 263 260 259 256 254 251 246 245 243 233 224 225 227 226 228 230 230 230 230 231 234 236 234 231 233 234 232 231 231 229 231 234 237 240 242 239 238 239 240 242 243 243 243 244 246 248 248
275 274 274 273 272 271 271 270 270 269 268 267 266 265 265 265 264 264 263 263 263 263 263 263 263 263 263 264 264 263 263 264 264 264 265 266 264 263 263 263 263 263 261 259 256 252 251 249 246 246 240 227 224 227 226 227 229 230 230 230 231 233 235 234 233 233 233 231 231 232 229 229 233 236 239 242 239 237 238 239 240 243 244 245 245 246 247 248
274 273 273 272 271 270 269 269 269 268 267 266 265 264 264 264 263 263 263 263 263 263 263 263 262 262 262 262 262 262 262 262 263 263 263 264 264 263 262 262 261 261 260 259 256 253 251 251 248 247 244 234 226 226 228 228 229 230 231 231 232 234 235 235 236 234 231 230 231 232 230 228 230 233 237 240 239 237 239 241 241 243 243 244 245 246 246 247
273 272 272 271 270 270 269 268 267 267 266 265 264 263 263 263 262 262 262 262 262 262 262 262 262 261 261 261 261 261 261 262 262 262 262 263 264 263 261 261 260 258 258 258 258 254 251 251 250 248 247 242 233 228 228 228 229 230 231 230 231 233 235 234 236 236 232 231 233 233 232 230 230 231 234 239 240 238 238 240 242 243 244 245 247 247 247 248
272 271 271 270 270 269 269 268 267 266 266 265 264 263 263 262 262 261 261 260 260 260 261 261 260 260 260 260 261 261 261 261 261 261 261 262 263 262 261 260 259 256 256 258 258 256 253 251 251 249 247 245 239 232 227 227 228 228 228 229 228 230 232 232 234 235 232 232 234 232 232 232 231 231 233 237 241 240 238 240 241 242 244 245 246 247 248 250
272 271 270 270 270 269 269 268 267 266 266 266 265 264 263 262 262 261 260 259 259 259 259 259 259 259 259 259 259 259 259 259 260 260 260 261 261 261 260 259 258 256 255 257 257 256 254 251 250 248 246 245 243 238 230 227 228 228 227 228 228 229 229 230 231 232 232 232 232 231 231 232 232 232 232 235 239 240 239 240 241 242 243 244 244 246 248 251
273 272 271 270 270 269 268 268 267 267 266 266 265 264 263 263 262 261 260 259 259 258 258 258 258 258 257 257 257 257 257 257 258 258 259 259 259 260 259 257 256 255 254 254 255 254 253 252 250 248 246 245 245 242 236 230 229 228 227 228 229 229 229 230 230 230 231 232 231 230 231 232 232 233 232 233 236 239 240 240 240 241 241 241 243 244 247 249
274 273 272 271 270 269 269 268 267 266 266 265 265 264 263 263 262 261 260 259 258 257 257 256 256 255 254 254 254 254 255 255 256 257 257 257 258 258 258 256 254 254 253 252 253 253 252 252 251 248 245 243 244 244 241 235 231 229 227 227 229 229 229 229 230 230 231 231 230 230 231 231 231 232 231 230 232 236 240 240 239 240 239 239 241 242 245 248
275 274 273 272 270 269 268 268 267 266 265 265 264 264 263 262 261 260 259 258 257 257 256 255 255 254 254 254 254 254 254 254 254 254 255 255 256 256 256 255 253 253 252 251 251 252 252 251 251 249 245 242 242 243 243 240 235 232 229 227 228 229 229 229 228 229 231 231 230 231 232 231 231 233 232 231 231 234 238 240 240 240 239 239 240 241 244 247
275 273 272 271 270 269 267 267 266 265 264 264 263 262 261 260 259 259 258 257 256 255 255 254 253 254 254 254 254 253 252 251 251 252 254 255 256 256 255 254 252 251 250 250 250 251 250 250 250 250 247 244 242 243 243 242 239 234 231 228 228 229 230 229 228 228 230 231 231 231 232 232 233 235 234 232 231 233 236 240 243 242 241 242 242 241 243 245
274 272 271 270 269 268 266 265 265 264 263 262 261 261 260 259 258 257 256 255 254 253 252 252 252 252 251 250 250 249 249 250 252 254 256 258 258 257 256 255 252 251 251 251 251 250 250 250 250 250 248 244 242 241 240 241 240 236 232 231 229 228 229 230 229 228 229 230 230 230 231 232 234 235 235 233 232 233 235 239 243 245 245 246 245 244 243 245
Height
10994 10994 10995 10995 10995 10995 10996 10996 10996 10996 10997 10997 10997 10997 10997 10998 10998 10998 10998 10998 10998 10998 10998 10998 10997 10998 10998 10997 10996 10996 10995 10995 10995 10994 10993 10993 10992 10991 10990 10989 10988 10987 10987 10986 10985 10984 10984 10983 10982 10982 10981 10981 10981 10982 10983 10982 10982 10985 10986 10983 10982 10981 10981 10982 10983 10983 10983 10984 10985 10986 10987 10988 10989 10989 10990 10990 10990 10990 10990 10990 10991 10991 10991 10990 10989 10989 10987 10987
10992 10992 10993 10993 10993 10994 10994 10994 10994 10995 10995 10995 10995 10995 10995 10995 10996 10996 10997 10997 10997 10997 10997 10997 10997 10997 10997 10997 10996 10995 10995 10995 10995 10995 10993 10993 10992 10992 10991 10990 10988 10987 10987 10986 10986 10985 10984 10984 10983 10982 10981 10980 10980 10980 10981 10980 10980 10982 10983 10981 10980 10980 10979 10980 10980 10981 10982 10983 10984 10985 10986 10987 10987 10988 10988 10988 10988 10988 10988 10988 10989 10989 10989 10988 10988 10987 10986 10985
10989 10990 10990 10990 10991 10991 10991 10992 10992 10992 10993 10993 10993 10993 10993 10993 10993 10994 10994 10995 10995 10995 10996 10996 10996 10996 10996 10997 10996 10995 10995 10994 10994 10994 10994 10993 10992 10992 10991 10990 10989 10988 10987 10986 10986 10986 10985 10984 10983 10982 10981 10980 10979 10979 10979 10979 10978 10979 10980 10979 10978 10978 10978 10978 10979 10979 10980 10981 10982 10983 10984 10985 10985 10986 10986 10986 10986 10986 10986 10987 10987 10987 10987 10987 10986 10985 10984 10984
10986 10987 10987 10988 10988 10988 10989 10989 10990 10990 10990 10991 10991 10991 10991 10991 10991 10991 10992 10992 10992 10993 10994 10994 10994 10995 10995 10995 10996 10995 10994 10994 10993 10993 10993 10993 10992 10991 10991 10991 10990 10989 10987 10987 10986 10986 10985 10984 10983 10982 10981 10980 10979 10978 10977 10978 10977 10978 10979 10977 10975 10976 10976 10977 10977 10978 10979 10979 10980 10981 10982 10983 10984 10984 10984 10984 10984 10984 10985 10985 10985 10985 10985 10985 10984 10984 10983 10983
10983 10983 10984 10984 10985 10985 10986 10986 10987 10987 10987 10988 10988 10989 10989 10989 10989 10989 10989 10989 10990 10990 10991 10992 10993 10993 10994 10994 10995 10995 10993 10993 10993 10992 10992 10992 10991 10991 10991 10990 10990 10989 10988 10987 10986 10986 10985 10984 10983 10982 10981 10980 10978 10977 10976 10977 10977 10976 10976 10975 10974 10975 10975 10975 10976 10976 10977 10978 10979 10980 10981 10981 10982 10982 10983 10983 10983 10983 10983 10983 10984 10984 10984 10983 10983 10983 10983 10983
10979 10980 10980 10981 10981 10982 10982 10983 10983 10983 10984 10984 10985 10986 10987 10987 10987 10986 10986 10986 10987 10987 10988 10989 10990 10991 10992 10993 10993 10994 10993 10991 10991 10991 10990 10991 10991 10990 10990 10990 10990 10989 10988 10987 10986 10986 10985 10985 10984 10983 10981 10980 10979 10977 10976 10975 10975 10974 10974 10973 10973 10974 10974 10974 10974 10975 10976 10977 10978 10979 10979 10980 10981 10981 10981 10981 10981 10982 10982 10982 10982 10983 10983 10983 10983 10983 10983 10983
10976 10976 10977 10977 10978 10978 10979 10979 10980 10980 10980 10981 10982 10983 10983 10984 10984 10984 10984 10984 10984 10985 10985 10986 10987 10988 10989 10991 10992 10992 10992 10989 10989 10990 10989 10989 10990 10989 10989 10989 10989 10989 10988 10988 10987 10986 10985 10984 10984 10983 10982 10980 10979 10977 10976 10974 10974 10973 10972 10972 10972 10972 10972 10972 10973 10974 10975 10976 10977 10978 10978 10979 10979 10979 10980 10980 10980 10980 10981 10981 10982 10982 10982 10982 10982 10982 10983 10982
10972 10972 10973 10973 10974 10974 10975 10975 10976 10976 10976 10977 10978 10979 10980 10980 10981 10981 10981 10981 10981 10982 10982 10983 10984 10985 10986 10988 10989 10990 10990 10987 10988 10989 10988 10988 10988 10988 10988 10988 10988 10988 10988 10988 10987 10986 10985 10984 10984 10983 10982 10981 10980 10978 10976 10974 10973 10972 10971 10970 10971 10971 10971 10971 10972 10973 10974 10975 10976 10976 10977 10977 10978 10978 10979 10979 10979 10979 10980 10980 10981 10981 10981 10982 10982 10982 10982 10982
10968 10968 10968 10969 10969 10970 10970 10971 10971 10971 10972 10972 10974 10975 10976 10976 10977 10978 10978 10978 10979 10979 10979 10980 10981 10982 10983 10985 10986 10987 10986 10985 10986 10987 10986 10987 10987 10986 10986 10986 10986 10987 10987 10987 10987 10986 10985 10984 10983 10983 10982 10981 10980 10978 10977 10975 10973 10972 10971 10970 10970 10970 10970 10970 10971 10972 10972 10973 10974 10975 10975 10976 10976 10977 10978 10978 10978 10979 10979 10980 10980 10980 10981 10981 10981 10981 10981 10981
10963 10963 10964 10964 10964 10965 10965 10966 10966 10966 10967 10967 10969 10970 10971 10972 10973 10973 10974 10975 10975 10976 10976 10976 10978 10979 10980 10981 10983 10983 10983 10983 10985 10986 10985 10985 10985 10985 10985 10984 10985 10985 10985 10985 10986 10986 10985 10984 10983 10982 10981 10981 10980 10979 10977 10976 10974 10973 10971 10970 10969 10969 10969 10970 10970 10970 10971 10972 10973 10973 10974 10975 10975 10976 10976 10977 10977 10978 10979 10979 10979 10979 10980 10980 10980 10980 10980 10980
10958 10958 10958 10958 10958 10959 10959 10960 10960 10960 10961 10961 10963 10964 10965 10967 10968 10969 10969 10970 10971 10972 10973 10973 10974 10975 10977 10978 10979 10980 10980 10981 10982 10983 10983 10982 10982 10983 10983 10983 10982 10983 10983 10984 10984 10985 10984 10983 10982 10982 10981 10980 10980 10979 10978 10976 10975 10973 10972 10970 10969 10969 10969 10969 10969 10969 10970 10970 10971 10972 10973 10974 10974 10975 10976 10976 10977 10977 10978 10978 10978 10978 10978 10979 10979 10979 10979 10979
10952 10952 10952 10952 10952 10952 10953 10954 10954 10954 10954 10955 10956 10958 10959 10960 10962 10963 10964 10965 10966 10967 10968 10969 10970 10971 10973 10973 10974 10976 10977 10978 10980 10980 10980 10979 10980 10981 10981 10981 10980 10980 10981 10981 10982 10983 10983 10983 10982 10981 10981 10980 10979 10978 10977 10977 10976 10974 10972 10971 10970 10969 10968 10968 10968 10968 10969 10969 10970 10971 10972 10973 10974 10974 10975 10976 10976 10977 10977 10977 10977 10977 10977 10978 10978 10978 10978 10978
10947 10947 10946 10946 10946 10946 10947 10948 10948 10948 10948 10948 10950 10951 10952 10953 10955 10957 10958 10960 10961 10962 10963 10964 10966 10967 10969 10969 10969 10972 10974 10974 10976 10977 10977 10977 10976 10977 10978 10978 10978 10978 10978 10979 10979 10980 10982 10982 10982 10981 10980 10980 10979 10978 10977 10976 10976 10975 10973 10971 10970 10969 10968 10967 10967 10967 10968 10969 10969 10970 10971 10972 10973 10974 10975 10975 10976 10977 10977 10976 10976 10976 10976 10977 10978 10978 10978 10978
10941 10941 10941 10940 10940 10940 10941 10941 10941 10941 10941 10942 10943 10944 10945 10946 10947 10949 10951 10953 10954 10956 10957 10959 10961 10962 10964 10965 10964 10967 10969 10970 10972 10974 10974 10974 10973 10974 10975 10976 10976 10976 10976 10976 10976 10978 10979 10980 10981 10980 10980 10980 10979 10979 10978 10977 10976 10975 10974 10972 10970 10969 10968 10967 10967 10967 10968 10968 10969 10969 10971 10972 10973 10974 10975 10975 10976 10976 10976 10976 10975 10975 10976 10977 10978 10978 10979 10979
10935 10935 10935 10934 10934 10934 10934 10935 10935 10935 10935 10935 10936 10937 10938 10938 10940 10941 10943 10946 10947 10949 10950 10953 10955 10956 10959 10960 10959 10961 10964 10966 10968 10970 10971 10971 10970 10971 10972 10973 10973 10973 10973 10973 10973 10975 10976 10978 10979 10979 10979 10979 10979 10978 10978 10977 10976 10975 10975 10973 10971 10969 10969 10968 10967 10967 10967 10968 10968 10969 10970 10971 10972 10973 10974 10975 10975 10976 10975 10975 10974 10975 10975 10977 10978 10979 10979 10980
10929 10929 10929 10928 10928 10927 10928 10928 10928 10928 10928 10928 10929 10929 10930 10931 10932 10933 10935 10937 10940 10942 10944 10946 10948 10950 10953 10954 10954 10956 10958 10960 10963 10965 10967 10968 10968 10968 10968 10970 10970 10971 10971 10971 10971 10972 10973 10975 10976 10977 10978 10978 10978 10978 10977 10977 10976 10975 10975 10974 10972 10970 10969 10968 10968 10967 10967 10968 10968 10969 10970 10971 10971 10972 10973 10974 10974 10975 10974 10974 10974 10975 10976 10978 10980 10980 10980 10981
10924 10924 10924 10923 10922 10921 10921 10921 10921 10921 10922 10922 10922 10922 10922 10923 10924 10925 10926 10929 10931 10934 10936 10938 10940 10943 10946 10947 10949 10950 10951 10954 10958 10960 10962 10963 10964 10964 10964 10966 10967 10968 10968 10968 10968 10968 10970 10971 10973 10975 10976 10976 10976 10976 10977 10976 10976 10975 10974 10974 10973 10971 10969 10969 10969 10968 10968 10968 10969 10969 10970 10971 10971 10971 10972 10973 10974 10974 10974 10974 10975 10976 10977 10979 10981 10982 10982 10982
10919 10919 10919 10918 10917 10916 10915 10915 10915 10915 10915 10915 10915 10916 10916 10916 10917 10918 10918 10920 10922 10925 10928 10930 10932 10935 10938 10941 10943 10943 10944 10948 10951 10954 10957 10958 10960 10960 10961 10962 10963 10964 10965 10965 10965 10965 10966 10968 10970 10972 10973 10974 10975 10975 10975 10976 10975 10974 10974 10974 10973 10972 10970 10970 10970 10970 10970 10970 10970 10970 10970 10971 10971 10971 10972 10973 10974 10974 10973 10974 10976 10977 10978 10980 10982 10983 10984 10984
10914 10914 10914 10914 10913 10911 10910 10910 10909 10909 10909 10909 10909 10909 10909 10909 10910 10910 10910 10912 10914 10916 10920 10921 10923 10927 10930 10933 10936 10937 10937 10941 10944 10948 10950 10952 10954 10956 10957 10957 10959 10960 10961 10962 10962 10962 10962 10964 10967 10968 10968 10971 10973 10973 10973 10974 10975 10974 10973 10973 10973 10973 10972 10972 10971 10971 10971 10971 10972 10971 10971 10971 10972 10972 10973 10974 10974 10974 10973 10974 10976 10978 10979 10981 10982 10984 10984 10985
10909 10909 10909 10909 10909 10907 10906 10905 10904 10904 10904 10904 10903 10903 10903 10903 10904 10903 10903 10905 10907 10908 10911 10913 10914 10917 10921 10924 10927 10929 10930 10934 10937 10940 10943 10945 10948 10950 10952 10953 10954 10956 10958 10958 10958 10959 10958 10961 10964 10962 10963 10968 10971 10972 10971 10972 10973 10973 10973 10972 10972 10972 10972 10972 10971 10971 10971 10972 10973 10973 10972 10972 10973 10973 10973 10974 10975 10975 10974 10974 10976 10978 10980 10981 10982 10984 10985 10986
10904 10904 10904 10904 10905 10903 10901 10900 10899 10899 10899 10899 10898 10898 10898 10898 10898 10898 10897 10898 10900 10901 10902 10905 10906 10907 10913 10916 10917 10919 10923 10926 10929 10932 10935 10938 10941 10944 10946 10948 10949 10951 10953 10953 10955 10956 10956 10959 10959 10956 10958 10964 10967 10969 10969 10970 10971 10972 10972 10971 10971 10971 10971 10971 10971 10971 10971 10972 10973 10973 10973 10973 10973 10973 10974 10974 10975 10975 10975 10975 10976 10978 10980 10981 10983 10984 10985 10986
10899 10899 10898 10899 10900 10899 10897 10896 10894 10893 10894 10894 10893 10893 10893 10893 10893 10893 10892 10892 10894 10896 10895 10896 10898 10898 10904 10908 10908 10909 10913 10917 10921 10924 10926 10929 10933 10936 10939 10942 10944 10945 10947 10950 10952 10953 10954 10955 10952 10949 10953 10958 10963 10966 10967 10967 10968 10969 10970 10970 10970 10970 10970 10970 10971 10971 10971 10971 10972 10973 10973 10973 10974 10974 10974 10975 10976 10976 10975 10975 10976 10978 10979 10981 10982 10984 10985 10986
10895 10893 10893 10893 10894 10895 10893 10891 10890 10889 10888 10888 10888 10888 10888 10888 10888 10888 10888 10887 10888 10891 10890 10889 10890 10891 10895 10899 10899 10901 10904 10907 10912 10915 10918 10921 10924 10928 10932 10935 10937 10939 10943 10946 10948 10949 10950 10948 10945 10944 10947 10953 10959 10962 10963 10964 10965 10967 10968 10968 10968 10968 10968 10968 10969 10971 10971 10971 10971 10972 10973 10974 10974 10974 10974 10975 10975 10976 10976 10976 10976 10977 10979 10980 10982 10983 10984 10985
10890 10888 10887 10887 10888 10889 10889 10887 10886 10884 10883 10883 10883 10883 10883 10883 10883 10883 10883 10882 10882 10885 10887 10885 10884 10884 10887 10890 10891 10893 10895 10898 10903 10907 10909 10911 10915 10920 10924 10926 10930 10935 10937 10940 10942 10944 10945 10941 10939 10940 10943 10949 10954 10957 10960 10961 10962 10963 10964 10966 10966 10966 10966 10967 10968 10969 10970 10970 10971 10971 10972 10973 10973 10974 10974 10975 10975 10976 10976 10976 10976 10977 10979 10980 10981 10982 10984 10985
10885 10883 10881 10881 10881 10883 10884 10882 10881 10879 10878 10878 10878 10878 10878 10877 10877 10877 10878 10878 10877 10878 10882 10882 10880 10878 10880 10882 10884 10885 10886 10890 10894 10898 10899 10901 10908 10913 10915 10918 10924 10928 10929 10932 10935 10938 10939 10936 10936 10938 10939 10943 10948 10953 10956 10958 10959 10959 10960 10962 10963 10964 10965 10966 10966 10967 10968 10969 10969 10970 10971 10972 10972 10973 10973 10974 10975 10975 10976 10976 10976 10977 10978 10980 10981 10982 10984 10985
10880 10878 10876 10874 10875 10876 10878 10878 10876 10874 10873 10872 10872 10872 10872 10872 10872 10871 10872 10874 10873 10872 10875 10877 10876 10875 10874 10875 10876 10877 10880 10884 10885 10889 10890 10892 10899 10903 10906 10911 10915 10918 10921 10925 10929 10933 10934 10932 10933 10935 10935 10937 10942 10947 10952 10954 10955 10956 10957 10958 10959 10961 10962 10964 10964 10964 10966 10966 10967 10968 10969 10970 10971 10972 10972 10973 10974 10974 10975 10976 10976 10977 10977 10978 10980 10982 10984 10985
10873 10872 10870 10868 10868 10868 10870 10873 10871 10869 10868 10866 10866 10867 10867 10867 10866 10866 10866 10868 10869 10867 10867 10870 10871 10871 10870 10870 10870 10870 10875 10876 10877 10882 10883 10884 10890 10894 10898 10902 10905 10909 10913 10917 10923 10927 10926 10925 10929 10931 10929 10931 10936 10941 10946 10949 10950 10952 10953 10952 10954 10957 10960 10961 10961 10961 10963 10963 10965 10966 10967 10969 10969 10970 10971 10972 10972 10973 10974 10975 10976 10977 10978 10978 10978 10980 10983 10984
10866 10866 10864 10861 10861 10860 10861 10865 10865 10864 10863 10860 10860 10860 10860 10860 10860 10860 10861 10862 10865 10863 10860 10861 10864 10865 10865 10866 10865 10866 10869 10869 10871 10875 10874 10875 10881 10885 10889 10893 10895 10899 10905 10911 10917 10918 10917 10920 10925 10924 10922 10925 10930 10934 10938 10942 10946 10947 10946 10947 10949 10952 10956 10958 10956 10957 10959 10960 10963 10965 10965 10967 10968 10968 10970 10970 10971 10972 10973 10974 10974 10975 10976 10977 10976 10978 10981 10983
10859 10859 10857 10854 10854 10853 10852 10855 10857 10857 10857 10855 10853 10854 10854 10853 10854 10854 10855 10858 10859 10857 10855 10854 10856 10858 10859 10860 10860 10861 10863 10863 10866 10867 10866 10868 10872 10876 10880 10883 10887 10890 10897 10904 10906 10908 10911 10915 10918 10917 10918 10922 10923 10926 10931 10935 10940 10940 10939 10942 10944 10947 10952 10953 10952 10953 10955 10957 10961 10963 10963 10965 10966 10967 10968 10968 10969 10970 10972 10973 10973 10973 10974 10974 10974 10975 10979 10982
10851 10851 10850 10847 10845 10845 10844 10845 10848 10848 10849 10849 10847 10847 10847 10847 10847 10847 10849 10853 10851 10849 10851 10848 10849 10851 10851 10853 10855 10856 10858 10858 10860 10860 10859 10861 10863 10866 10869 10873 10879 10882 10886 10894 10896 10900 10903 10906 10911 10913 10916 10917 10914 10918 10925 10929 10932 10932 10933 10937 10940 10943 10946 10948 10948 10949 10951 10957 10960 10960 10960 10961 10962 10964 10965 10966 10967 10968 10970 10971 10971 10972 10973 10973 10973 10973 10976 10979
10842 10842 10842 10840 10836 10835 10836 10836 10837 10838 10840 10841 10839 10839 10840 10840 10841 10841 10843 10845 10840 10842 10845 10841 10841 10844 10844 10845 10848 10850 10852 10852 10854 10854 10853 10854 10856 10858 10860 10863 10870 10872 10877 10884 10886 10888 10893 10899 10905 10907 10907 10907 10906 10912 10920 10922 10924 10925 10929 10934 10936 10937 10940 10943 10945 10946 10950 10956 10957 10956 10957 10957 10959 10961 10962 10963 10964 10966 10967 10969 10970 10970 10971 10973 10973 10973 10974 10976
10833 10833 10833 10832 10829 10825 10825 10826 10826 10828 10831 10831 10829 10831 10832 10832 10836 10837 10836 10835 10832 10835 10838 10833 10833 10836 10836 10839 10841 10843 10844 10845 10848 10848 10847 10849 10850 10852 10853 10854 10860 10863 10868 10874 10874 10877 10885 10892 10896 10897 10898 10899 10900 10905 10911 10914 10916 10918 10923 10929 10932 10932 10935 10939 10942 10944 10949 10952 10952 10952 10953 10953 10955 10956 10958 10960 10962 10964 10965 10966 10968 10969 10970 10971 10971 10972 10973 10974
10823 10823 10822 10823 10821 10816 10815 10816 10815 10816 10820 10820 10820 10822 10822 10825 10832 10831 10827 10825 10823 10827 10829 10826 10826 10827 10828 10832 10833 10834 10837 10837 10839 10841 10841 10843 10844 10846 10847 10847 10851 10854 10857 10862 10865 10869 10876 10883 10888 10890 10892 10895 10896 10898 10906 10909 10909 10911 10916 10923 10927 10928 10930 10936 10939 10941 10944 10947 10947 10946 10948 10951 10951 10951 10954 10957 10958 10960 10962 10963 10965 10966 10968 10969 10969 10970 10971 10971
10813 10812 10812 10812 10811 10808 10805 10804 10803 10804 10807 10810 10810 10810 10813 10821 10825 10820 10818 10817 10814 10817 10820 10818 10819 10819 10820 10823 10823 10827 10830 10828 10831 10834 10833 10835 10838 10840 10841 10841 10843 10845 10845 10850 10857 10861 10866 10874 10881 10882 10882 10886 10888 10892 10899 10899 10898 10903 10907 10911 10917 10922 10926 10931 10934 10936 10937 10940 10940 10939 10944 10949 10948 10947 10950 10952 10954 10956 10958 10960 10961 10963 10965 10966 10967 10969 10969 10969
10801 10801 10801 10800 10800 10799 10796 10794 10793 10791 10794 10798 10798 10800 10807 10814 10813 10807 10808 10808 10806 10807 10809 10810 10811 10810 10812 10815 10814 10818 10822 10820 10822 10826 10825 10827 10831 10833 10835 10835 10835 10837 10837 10841 10848 10852 10856 10864 10870 10870 10871 10878 10881 10884 10886 10884 10890 10898 10895 10898 10911 10919 10922 10923 10926 10928 10927 10930 10935 10936 10941 10944 10941 10941 10944 10946 10950 10952 10954 10957 10958 10959 10962 10963 10964 10966 10966 10967
10788 10788 10788 10788 10788 10787 10784 10783 10781 10779 10781 10783 10785 10793 10801 10803 10799 10796 10796 10797 10798 10798 10798 10800 10803 10802 10803 10806 10805 10808 10813 10812 10812 10817 10818 10819 10822 10824 10827 10828 10829 10830 10831 10832 10836 10842 10847 10853 10857 10860 10865 10871 10874 10874 10874 10877 10887 10890 10883 10893 10910 10913 10911 10914 10918 10920 10920 10925 10932 10933 10936 10938 10936 10936 10938 10942 10947 10948 10951 10954 10954 10955 10958 10960 10961 10962 10963 10964
10776 10775 10774 10775 10777 10774 10771 10770 10768 10767 10767 10767 10773 10785 10791 10789 10787 10786 10784 10786 10787 10787 10787 10789 10792 10792 10793 10797 10798 10799 10803 10803 10804 10809 10811 10810 10813 10817 10818 10820 10822 10824 10824 10823 10824 10831 10838 10842 10845 10852 10856 10860 10862 10862 10864 10871 10879 10880 10878 10891 10901 10899 10901 10908 10911 10912 10915 10923 10928 10928 10930 10933 10932 10932 10934 10938 10942 10945 10947 10949 10950 10952 10954 10956 10957 10959 10960 10961
10764 10762 10759 10762 10764 10760 10758 10756 10753 10753 10751 10753 10763 10774 10776 10774 10775 10775 10772 10772 10774 10776 10779 10779 10780 10783 10784 10787 10789 10788 10792 10795 10796 10799 10801 10802 10805 10808 10810 10811 10815 10817 10816 10815 10815 10821 10829 10832 10836 10843 10846 10848 10851 10852 10855 10863 10870 10874 10879 10885 10886 10888 10897 10903 10904 10908 10914 10920 10921 10922 10924 10927 10929 10929 10930 10933 10937 10941 10944 10943 10944 10947 10949 10951 10952 10954 10956 10958
10751 10747 10744 10749 10749 10742 10744 10743 10738 10737 10736 10741 10752 10758 10759 10759 10760 10761 10760 10759 10761 10765 10770 10769 10768 10770 10773 10777 10778 10777 10780 10786 10787 10788 10792 10794 10795 10797 10802 10803 10806 10809 10808 10807 10808 10811 10818 10822 10825 10831 10835 10837 10840 10844 10851 10859 10866 10870 10874 10876 10875 10881 10892 10895 10898 10904 10909 10912 10914 10916 10919 10922 10926 10924 10923 10927 10932 10937 10939 10937 10938 10942 10944 10946 10947 10949 10952 10954
10737 10733 10727 10734 10733 10724 10727 10728 10724 10724 10724 10729 10737 10740 10741 10743 10744 10746 10748 10747 10747 10752 10759 10758 10755 10757 10762 10765 10767 10768 10769 10772 10778 10779 10781 10785 10785 10787 10794 10795 10795 10799 10799 10798 10801 10802 10807 10814 10816 10818 10824 10828 10833 10843 10851 10855 10858 10861 10865 10869 10869 10874 10882 10886 10892 10898 10900 10904 10908 10911 10914 10919 10921 10918 10917 10922 10927 10932 10934 10932 10933 10937 10938 10940 10942 10944 10947 10949
10719 10716 10710 10717 10717 10706 10706 10710 10709 10710 10710 10715 10721 10722 10724 10726 10727 10729 10733 10733 10734 10739 10745 10745 10743 10746 10750 10752 10756 10759 10756 10758 10768 10770 10769 10775 10776 10777 10783 10786 10786 10789 10791 10792 10794 10795 10798 10805 10806 10805 10814 10826 10830 10837 10843 10841 10842 10848 10853 10859 10862 10864 10869 10875 10884 10890 10893 10900 10904 10906 10910 10913 10913 10912 10912 10915 10921 10926 10928 10927 10929 10931 10933 10935 10937 10939 10942 10944
10700 10698 10693 10697 10699 10689 10684 10689 10694 10693 10693 10700 10705 10704 10704 10707 10710 10713 10716 10719 10721 10725 10728 10730 10732 10735 10737 10739 10744 10747 10744 10745 10755 10760 10758 10763 10766 10766 10772 10777 10778 10779 10783 10785 10785 10787 10788 10792 10798 10797 10806 10820 10822 10824 10828 10827 10830 10836 10840 10847 10852 10853 10854 10861 10874 10883 10888 10896 10899 10899 10905 10908 10907 10907 10905 10907 10916 10921 10921 10922 10924 10925 10927 10931 10932 10934 10936 10938
10680 10680 10674 10673 10677 10673 10665 10669 10675 10673 10675 10681 10684 10684 10685 10688 10693 10697 10699 10703 10707 10710 10711 10713 10718 10722 10724 10726 10729 10733 10733 10733 10742 10748 10748 10750 10754 10755 10761 10769 10770 10769 10772 10774 10775 10777 10779 10783 10791 10792 10796 10808 10812 10813 10817 10818 10821 10826 10831 10840 10845 10845 10847 10855 10869 10875 10878 10887 10892 10892 10900 10904 10901 10901 10900 10901 10909 10914 10914 10917 10919 10919 10923 10926 10927 10929 10931 10932
10659 10660 10656 10650 10651 10653 10648 10650 10653 10651 10653 10660 10662 10664 10667 10670 10674 10678 10682 10686 10691 10693 10694 10697 10702 10706 10709 10711 10713 10718 10720 10721 10729 10735 10736 10738 10741 10745 10752 10759 10762 10760 10759 10762 10765 10769 10774 10777 10782 10784 10787 10796 10804 10808 10810 10813 10816 10820 10827 10837 10841 10841 10845 10854 10860 10861 10868 10880 10883 10885 10894 10898 10894 10894 10894 10894 10900 10907 10909 10910 10912 10914 10918 10920 10921 10923 10924 10926
10637 10636 10635 10628 10624 10627 10629 10630 10630 10628 10629 10635 10640 10644 10648 10651 10655 10659 10664 10669 10673 10675 10677 10680 10685 10689 10693 10695 10697 10703 10707 10709 10716 10721 10723 10726 10729 10734 10741 10749 10752 10749 10746 10752 10757 10761 10767 10771 10773 10777 10782 10788 10795 10800 10802 10804 10807 10811 10817 10825 10831 10833 10839 10848 10848 10848 10863 10876 10875 10880 10891 10891 10885 10887 10889 10887 10891 10900 10904 10904 10905 10908 10911 10913 10916 10918 10918 10920
10613 10612 10611 10604 10598 10601 10607 10606 10604 10603 10605 10610 10617 10624 10629 10631 10635 10640 10645 10650 10654 10656 10658 10662 10666 10670 10676 10680 10683 10688 10693 10696 10701 10705 10710 10715 10718 10722 10729 10736 10740 10737 10737 10745 10749 10752 10759 10763 10766 10771 10775 10777 10781 10786 10789 10791 10792 10796 10802 10809 10816 10820 10827 10834 10833 10838 10857 10865 10864 10875 10884 10879 10877 10882 10883 10882 10885 10891 10895 10896 10899 10902 10905 10908 10911 10911 10911 10914
10586 10587 10586 10578 10572 10576 10582 10580 10576 10577 10582 10586 10593 10601 10605 10608 10613 10618 10623 10629 10634 10636 10638 10643 10647 10653 10660 10664 10667 10672 10677 10681 10685 10690 10697 10702 10705 10710 10717 10723 10726 10727 10732 10738 10739 10742 10749 10754 10759 10764 10765 10767 10769 10773 10778 10781 10781 10786 10794 10799 10804 10808 10814 10818 10821 10833 10848 10848 10852 10868 10871 10867 10873 10877 10876 10878 10879 10881 10884 10888 10892 10896 10899 10903 10903 10903 10905 10909
10556 10558 10558 10552 10547 10549 10554 10553 10551 10552 10557 10560 10565 10573 10580 10584 10589 10594 10599 10606 10612 10614 10618 10623 10630 10636 10642 10645 10649 10654 10660 10665 10669 10676 10683 10688 10692 10698 10703 10709 10714 10719 10725 10728 10728 10732 10739 10746 10751 10755 10757 10758 10759 10762 10768 10771 10772 10777 10785 10791 10794 10798 10803 10808 10815 10829 10835 10833 10845 10860 10857 10858 10868 10869 10869 10874 10873 10870 10873 10878 10883 10887 10891 10894 10895 10897 10900 10903
10525 10526 10526 10523 10521 10523 10525 10525 10524 10527 10530 10531 10537 10546 10554 10558 10564 10570 10575 10581 10586 10591 10598 10605 10609 10613 10617 10623 10630 10637 10645 10651 10656 10663 10668 10673 10680 10685 10689 10696 10705 10710 10715 10717 10717 10723 10732 10739 10741 10744 10748 10750 10749 10752 10758 10762 10765 10769 10776 10782 10784 10786 10793 10801 10811 10822 10823 10823 10838 10847 10844 10850 10860 10860 10863 10868 10865 10860 10862 10867 10873 10877 10882 10884 10886 10891 10894 10896
10493 10492 10492 10491 10491 10494 10495 10493 10495 10499 10502 10504 10509 10518 10525 10530 10536 10541 10548 10555 10563 10571 10577 10580 10583 10589 10597 10607 10617 10626 10633 10637 10640 10645 10650 10657 10667 10673 10677 10685 10694 10700 10704 10706 10708 10715 10724 10729 10730 10733 10738 10741 10742 10744 10748 10752 10757 10760 10765 10771 10774 10777 10784 10792 10802 10812 10812 10817 10831 10835 10834 10844 10851 10852 10858 10861 10856 10853 10854 10858 10862 10867 10872 10875 10879 10885 10888 10889
10461 10460 10461 10459 10461 10464 10464 10463 10466 10470 10475 10478 10481 10487 10494 10500 10506 10513 10523 10534 10543 10549 10549 10552 10563 10575 10586 10597 10605 10610 10611 10612 10617 10626 10635 10645 10656 10661 10666 10675 10683 10688 10692 10695 10700 10708 10715 10718 10720 10723 10728 10735 10737 10735 10739 10743 10745 10747 10753 10761 10766 10771 10776 10783 10793 10801 10804 10811 10822 10824 10828 10840 10847 10847 10850 10852 10851 10849 10849 10850 10853 10858 10863 10867 10873 10880 10882 10882
10432 10433 10434 10434 10436 10435 10435 10438 10440 10443 10449 10453 10454 10458 10466 10473 10479 10488 10499 10508 10516 10520 10522 10532 10548 10560 10568 10576 10580 10582 10585 10593 10606 10619 10630 10639 10645 10648 10655 10665 10673 10678 10683 10688 10693 10699 10705 10709 10712 10714 10720 10727 10728 10727 10730 10730 10728 10736 10749 10755 10758 10762 10767 10774 10783 10791 10796 10802 10809 10814 10825 10837 10838 10834 10837 10845 10849 10848 10846 10843 10844 10850 10855 10858 10864 10872 10874 10875